This demonstration page uses our WeatherBlox Daily Observations layout. Learn more.

Left ArrowRight Arrow

39.92423, -83.80882

Hourly Observations for January 2, 2016

Temp ( °F °C ) Dew Point ( °F °C ) Humidity (%) Winds ( mph kmh ) Pressure ( in mb ) Visibility ( mi km ) Precip ( " mm )
12:56 am 00:56 Clear 25 -3.8 23 -5 91 91 WSW 9 15 30.24 1024 10 16 0.00 0.00
1:56 am 01:56 Clear 25 -3.8 23 -5 91 91 SW 12 19 30.22 1023 10 16 0.00 0.00
2:56 am 02:56 Clear 25 -3.8 23 -5 91 91 SW 12 19 30.22 1023 10 16 0.00 0.00
3:56 am 03:56 Clear 25 -3.8 23 -5 91 91 SSW 12 19 30.20 1023 10 16 0.00 0.00
4:56 am 04:56 Clear 25 -3.8 23 -5 91 91 SSW 10 17 30.18 1022 10 16 0.00 0.00
5:56 am 05:56 Clear 25 -3.8 23 -5 91 91 SSW 10 17 30.18 1022 10 16 0.00 0.00
6:56 am 06:56 Clear 25 -3.8 23 -5 91 91 SSW 12 19 30.18 1022 10 16 0.00 0.00
7:56 am 07:56 Clear 26 -3.3 23 -5 88 88 SW 13 20 30.19 1022 10 16 0.00 0.00
8:56 am 08:56 Sunny 28 -2.2 24 -4.4 85 85 SW 14 22 30.19 1023 10 16 0.00 0.00
9:56 am 09:56 Sunny 31 -0.5 26 -3.3 82 82 WSW 15 24 30.21 1023 10 16 0.00 0.00
10:56 am 10:56 Mostly Sunny 33 0.5 26 -3.3 76 76 WSW 16 26 30.20 1023 10 16 0.00 0.00
11:29 am 11:29 Mostly Cloudy 34 1 25 -4 70 70 WSW 15 24 30.21 1023 10 16 0.00 0.00
11:44 am 11:44 Partly Cloudy 34 1 27 -3 75 75 WSW 14 22 30.21 1023 10 16 0.00 0.00
11:56 am 11:56 Mostly Sunny 35 1.6 25 -3.8 68 68 WSW 18 30 30.18 1022 10 16 0.00 0.00
12:56 pm 12:56 Sunny 37 2.7 26 -3.3 65 65 WSW 14 22 30.14 1021 10 16 0.00 0.00
1:56 pm 13:56 Sunny 38 3.3 26 -3.3 62 62 SW 16 26 30.12 1020 10 16 0.00 0.00
2:56 pm 14:56 Sunny 39 3.8 26 -3.3 60 60 WSW 15 24 30.10 1019 10 16 0.00 0.00
3:56 pm 15:56 Sunny 39 3.8 26 -3.3 60 60 WSW 12 19 30.09 1019 10 16 0.00 0.00
4:56 pm 16:56 Sunny 37 2.7 26 -3.3 65 65 SW 12 19 30.10 1019 10 16 0.00 0.00
5:56 pm 17:56 Clear 33 0.5 25 -3.8 73 73 SW 10 17 30.10 1019 10 16 0.00 0.00
6:56 pm 18:56 Clear 32 0 26 -3.3 79 79 SW 8 13 30.09 1019 10 16 0.00 0.00
7:56 pm 19:56 Clear 33 0.5 26 -3.3 76 76 SW 9 15 30.08 1019 10 16 0.00 0.00
8:56 pm 20:56 Clear 33 0.5 26 -3.3 76 76 SW 14 22 30.06 1018 10 16 0.00 0.00
9:56 pm 21:56 Clear 33 0.5 26 -3.3 76 76 SW 16 26 30.04 1017 10 16 0.00 0.00
10:56 pm 22:56 Clear 33 0.5 26 -3.3 76 76 SW 18 30 30.03 1017 10 16 0.00 0.00
11:56 pm 23:56 Clear 33 0.5 26 -3.3 76 76 SW 20 31 30.01 1016 10 16 0.00 0.00

Powered by AerisWeather